Probability
0 0 0 0 0 0 0 0 0 0 0 0 2 6 10 9 9 11 14 16 18 19 16 13 12 10 9 11 15 17 18 20 22 26 30 29 28 28 29 29 27 24 24 25
0 0 0 0 0 0 0 0 0 0 0 1 3 6 9 8 8 11 12 13 16 17 16 14 12 11 9 9 11 13 14 16 19 23 27 28 27 25 24 25 25 24 24 25
0 0 0 0 0 0 0 0 0 0 0 1 2 5 6 6 6 8 9 9 12 15 16 15 14 12 10 10 10 9 9 11 14 18 21 22 21 19 19 21 23 23 23 23
0 0 0 0 0 0 0 0 0 0 0 0 1 2 4 5 5 5 7 9 11 14 14 12 12 12 11 12 11 9 7 9 13 17 18 17 15 14 17 19 19 18 18 17
0 0 0 0 0 0 0 0 0 0 0 0 0 0 2 4 4 5 7 9 10 11 10 8 8 9 10 11 10 9 8 10 15 18 20 19 16 16 19 19 16 12 12 12
0 0 0 0 0 0 0 0 0 0 0 0 0 0 2 3 3 5 7 8 8 7 6 6 7 8 8 9 8 8 8 10 14 17 19 20 20 19 20 18 14 10 9 9
0 0 0 0 0 0 0 0 0 0 0 0 0 1 3 4 5 6 7 7 6 4 4 6 7 8 9 8 7 7 8 9 11 14 16 17 18 17 15 13 11 9 6 6
0 0 0 0 0 0 0 0 0 0 0 0 0 1 3 5 5 6 6 6 5 3 3 4 5 6 7 7 6 7 8 8 9 10 11 12 12 10 7 7 6 5 3 2
0 0 0 0 0 0 0 0 0 0 0 0 0 1 2 4 4 3 4 5 4 3 1 1 2 2 3 3 4 5 5 6 6 6 6 7 7 5 3 3 3 2 0 0
0 0 0 0 0 0 0 0 0 0 0 0 0 0 1 2 2 3 3 4 3 1 0 0 0 0 0 1 1 2 2 2 2 2 3 4 4 3 3 2 1 0 0 0
0 0 0 0 0 0 0 0 0 0 0 0 0 0 0 1 2 3 4 4 3 1 0 0 0 0 0 0 0 0 0 0 0 0 1 2 2 2 2 1 0 0 0 0
0 0 0 0 0 0 0 0 0 0 0 0 0 0 1 2 3 4 6 5 2 1 0 0 0 0 0 0 0 0 0 0 0 0 0 1 1 1 1 0 0 0 0 0
0 0 0 0 0 0 0 0 0 0 0 0 0 0 2 4 5 6 7 5 2 1 1 0 0 0 0 0 0 0 0 0 0 0 0 0 0 0 0 0 0 0 0 0
0 0 0 0 0 0 0 0 0 0 0 0 0 0 2 3 5 6 7 5 2 2 2 1 0 0 0 0 0 0 0 0 0 0 0 0 0 0 0 0 0 0 0 0
0 0 0 0 0 0 0 0 0 0 0 0 0 1 1 2 4 6 5 3 1 2 2 1 0 0 0 0 0 0 0 0 0 0 0 0 0 0 0 0 0 0 0 0
0 0 0 0 0 0 0 0 0 0 0 0 0 1 2 2 3 4 4 1 0 1 1 0 0 0 0 0 0 0 0 0 0 0 0 0 0 0 0 0 0 0 0 0
0 0 0 0 0 0 0 0 0 0 0 0 0 1 2 2 2 2 2 1 0 0 0 0 0 0 0 0 0 0 0 0 0 0 0 0 0 0 0 0 0 0 0 0
0 0 0 0 0 0 0 0 0 0 0 0 0 0 2 4 4 2 1 1 0 0 0 0 0 0 0 0 0 0 0 0 0 0 0 0 0 0 0 0 0 0 0 0
0 0 0 0 0 0 0 0 0 0 0 0 0 1 2 4 4 3 1 0 0 0 0 0 0 0 0 0 0 0 0 0 0 0 0 0 0 0 0 0 0 0 0 0
0 0 0 0 0 0 0 0 0 0 0 0 0 1 2 4 5 3 0 0 0 0 0 0 0 0 0 0 0 0 0 0 0 0 0 0 0 0 0 0 0 0 0 0
0 0 0 0 0 0 0 0 0 0 0 0 0 1 1 3 4 3 0 0 0 0 0 0 0 0 0 0 0 0 0 0 0 0 0 0 0 0 0 0 0 0 0 0
0 0 0 0 0 0 0 0 0 0 0 0 0 0 0 1 2 1 0 0 0 0 0 0 0 0 0 0 0 0 0 0 0 0 0 0 0 0 0 0 0 0 0 0
0 0 0 0 0 0 0 0 0 0 0 0 0 0 0 0 0 0 0 0 0 0 0 0 0 0 0 0 0 0 0 0 0 0 0 0 0 0 0 0 0 0 0 0
0 0 0 0 0 0 0 0 0 0 0 0 0 0 0 0 0 0 0 0 0 0 0 0 0 0 0 0 0 0 0 0 0 0 0 0 0 0 0 0 0 0 0 0
0 0 0 0 0 0 0 0 0 0 0 0 0 0 0 0 0 0 0 0 0 0 0 0 0 0 0 0 0 0 0 0 0 0 0 0 0 0 0 0 0 0 0 0
0 0 0 0 0 0 0 0 0 0 0 0 0 0 0 0 0 0 0 0 0 0 0 0 0 0 0 0 0 0 0 0 0 0 0 0 0 0 0 0 0 0 0 0
Wind_Speed
6 9 6 3 2 1 2 4 6 6 4 4 6 9 8 7 7 7 7 6 7 7 7 7 8 8 7 7 7 6 4 3 1 1 0 0 0 1 0 0 1 1 2 2
9 7 2 2 3 4 6 7 7 7 5 3 7 8 7 6 6 6 6 6 6 7 7 8 8 8 8 8 7 6 5 4 3 2 1 1 1 1 1 1 1 1 2 2
5 4 3 4 6 7 7 6 6 7 8 6 7 9 9 7 6 6 6 6 6 6 6 7 7 8 8 8 8 6 6 5 4 3 1 1 0 0 0 1 1 2 2 2
4 3 4 6 6 7 6 4 5 7 9 7 8 6 10 10 9 8 7 6 6 6 6 7 7 8 8 8 7 6 6 6 5 4 3 1 1 1 1 2 2 2 2 2
5 4 5 4 2 4 2 3 6 7 7 5 7 8 7 11 10 9 8 7 6 6 6 6 7 7 7 7 6 6 6 6 6 5 4 3 3 2 2 2 2 2 2 3
2 2 2 0 2 2 5 6 6 7 8 9 5 7 4 7 7 9 10 9 7 6 7 7 7 7 7 7 7 6 7 7 7 7 6 5 5 4 4 4 3 3 3 4
7 6 4 3 5 7 8 7 6 8 8 4 4 6 1 5 3 6 10 10 9 7 7 6 7 7 7 7 7 7 7 7 7 7 7 6 6 6 6 5 4 4 4 4
7 8 5 3 4 3 6 8 7 6 5 2 6 5 6 6 4 6 9 11 10 8 7 7 6 6 7 7 7 7 7 7 7 7 7 7 7 5 5 6 6 6 5 5
3 4 5 1 1 5 5 6 6 8 8 7 3 3 7 6 6 8 10 10 10 8 8 7 6 6 6 7 7 7 7 7 7 7 7 7 7 7 7 6 6 6 5 5
4 3 4 4 5 2 4 2 4 7 7 7 4 5 3 11 10 10 11 10 10 9 8 7 6 6 6 6 6 6 7 7 6 6 6 6 7 7 7 7 8 7 7 7
4 5 5 6 5 2 4 5 5 6 6 7 5 0 5 3 9 11 11 11 11 10 8 7 6 5 5 5 6 6 6 6 6 6 6 7 7 7 7 7 7 7 7 7
2 5 5 3 1 3 5 4 5 6 6 7 8 1 6 3 6 10 11 12 11 10 9 8 7 6 5 6 6 6 6 6 6 6 6 7 7 7 8 8 7 7 7 7
3 5 6 6 6 5 4 4 5 6 7 7 8 0 7 6 6 9 12 12 11 10 9 8 7 6 6 6 5 6 6 6 6 6 7 7 7 8 8 7 7 7 8 8
5 5 7 6 4 3 4 5 5 8 8 7 7 4 4 6 8 10 12 13 12 10 9 8 7 7 6 6 6 6 6 5 6 6 7 8 8 7 7 7 7 7 7 8
5 6 6 6 5 6 8 8 8 9 10 9 8 5 1 5 8 11 13 13 13 11 10 9 8 7 7 6 6 6 6 5 5 6 7 7 7 7 7 7 7 7 7 8
4 5 6 7 6 7 9 8 8 8 8 9 7 2 5 7 9 10 12 13 13 12 11 10 9 8 7 7 7 6 6 5 5 6 7 7 7 7 7 7 7 7 8 8
4 5 6 6 5 8 6 3 4 4 4 5 5 3 7 8 9 11 12 12 12 12 12 11 9 8 7 7 6 6 6 6 6 6 7 7 7 7 7 7 8 8 8 9
6 6 5 6 6 6 3 3 4 4 2 3 3 5 6 8 8 8 10 12 12 12 12 11 10 9 8 7 6 6 6 5 6 6 6 7 7 7 7 7 8 8 7 7
7 6 5 5 6 3 3 3 4 4 1 4 5 7 8 11 10 7 7 10 11 12 11 10 10 9 8 7 7 6 6 6 6 6 6 6 6 7 7 7 7 7 7 7
5 6 6 5 5 1 5 6 5 6 3 5 5 8 9 10 6 7 9 11 12 12 11 10 10 9 8 7 7 6 6 6 6 6 6 6 6 7 7 7 7 6 6 6
4 5 6 6 5 1 8 7 5 3 5 3 3 7 8 4 4 12 14 12 12 12 12 11 10 9 8 8 7 7 7 7 6 6 6 6 6 6 6 6 5 5 5 6
4 3 3 4 3 2 8 6 6 6 4 2 4 7 6 8 13 15 14 14 13 13 12 11 10 9 8 8 7 8 7 7 7 7 7 6 5 5 6 5 5 5 5 6
3 4 4 4 3 5 4 4 4 3 2 3 6 8 9 12 14 15 14 14 13 12 11 10 10 10 8 7 7 8 8 7 7 7 7 6 6 5 5 4 4 4 3 3
1 2 5 4 1 3 4 4 3 3 3 5 7 9 11 13 14 14 14 13 12 11 11 10 10 10 9 8 8 8 7 6 7 7 6 6 5 5 5 3 3 4 3 4
5 4 4 4 2 1 3 4 4 4 6 8 8 9 11 14 14 14 13 13 12 11 10 9 9 10 10 9 8 8 7 6 7 7 6 5 5 5 5 5 6 5 6 6
5 5 5 3 3 3 3 3 2 4 6 8 9 10 11 13 14 14 13 12 12 11 10 10 10 10 10 9 8 7 6 6 6 6 5 5 5 4 5 6 6 8 7 5
Wind_Direction
195 219 202 172 238 313 208 197 162 128 131 181 149 138 140 150 158 148 141 131 119 98 81 70 62 58 55 49 44 36 29 26 12 347 334 72 256 273 275 303 327 291 279 265
202 201 149 165 199 220 208 196 156 133 135 173 147 142 143 155 159 154 148 140 124 110 91 71 60 55 51 44 35 32 25 19 5 7 350 324 317 314 347 1 29 327 294 284
225 107 143 212 201 207 205 210 168 148 149 169 172 167 165 161 159 152 149 134 116 103 89 74 59 51 46 40 31 26 24 21 14 5 22 75 118 254 71 33 23 6 346 332
213 158 208 215 198 219 186 187 188 175 198 177 215 219 168 170 173 169 157 140 124 106 87 73 61 52 43 37 34 32 27 30 25 19 31 39 30 359 5 6 25 18 16 359
167 182 212 203 166 235 95 158 191 204 229 221 208 256 155 170 187 182 168 152 129 105 89 77 65 59 51 42 39 38 35 36 30 30 33 24 39 38 41 46 48 32 37 26
206 191 256 157 112 165 150 164 178 216 229 234 212 253 201 172 195 174 162 148 128 110 95 83 73 66 56 47 42 40 41 40 32 30 35 36 42 45 45 42 42 44 40 33
177 172 167 191 177 170 205 215 215 214 220 222 148 246 55 102 115 157 155 145 132 119 102 86 73 64 55 46 40 39 42 40 35 34 38 43 43 48 47 35 37 40 42 35
194 170 161 192 249 213 216 251 267 275 270 213 181 239 93 101 102 123 137 138 133 122 107 91 78 69 62 52 45 41 42 43 40 41 41 45 45 46 46 38 36 39 37 36
241 153 133 129 246 265 222 243 305 283 274 270 228 162 137 142 140 138 137 139 137 127 114 102 87 75 66 58 50 46 47 48 45 48 52 53 52 51 51 47 43 42 36 39
291 246 168 156 188 156 304 283 250 261 271 271 246 231 189 171 175 164 160 155 142 130 121 109 94 84 75 68 64 58 55 53 48 52 57 62 59 57 54 50 49 48 43 40
280 261 208 204 233 230 200 216 257 273 288 284 279 354 62 139 170 172 168 158 145 138 131 121 109 95 87 80 74 70 66 61 54 57 65 66 62 58 58 54 51 50 48 45
306 277 256 225 91 317 277 274 255 266 265 267 286 31 87 108 149 161 154 146 139 135 132 127 118 106 95 84 77 73 70 65 58 63 67 65 64 62 60 57 53 54 53 52
317 261 247 204 184 195 225 232 257 269 274 267 271 117 110 122 137 143 143 140 136 136 135 130 122 115 105 95 88 79 73 69 66 71 77 73 68 66 64 61 56 56 57 56
289 267 277 292 325 309 262 246 249 260 266 273 277 299 150 154 150 145 144 142 140 142 140 135 131 126 118 110 102 95 82 76 75 75 76 75 70 67 65 61 58 58 59 61
304 265 272 289 293 278 274 272 264 263 275 282 296 306 24 159 159 151 148 146 147 148 146 143 140 132 127 118 109 100 93 85 86 88 85 80 78 75 70 66 64 63 63 66
317 283 271 262 260 270 269 270 269 266 271 278 285 322 78 122 136 144 152 156 157 155 150 147 144 138 135 125 115 106 97 91 91 90 87 83 79 76 74 75 74 69 68 67
283 273 270 266 269 266 251 286 286 284 296 296 305 78 124 137 148 154 159 163 159 154 151 150 146 141 134 124 118 112 109 105 99 94 91 88 84 80 76 76 76 73 70 72
274 274 268 272 267 251 65 32 328 309 358 10 60 107 130 131 129 137 153 157 154 151 150 145 140 137 130 124 121 120 117 113 107 100 96 92 90 91 86 79 76 73 70 70
235 259 266 265 261 240 122 40 346 310 76 55 99 116 116 120 119 122 141 149 147 146 143 139 139 138 137 137 136 126 115 108 100 92 89 90 91 93 89 84 80 80 80 76
194 234 258 261 271 283 59 18 338 283 145 73 110 138 144 162 166 142 145 142 138 136 136 137 139 141 142 139 136 127 118 108 99 96 92 89 87 89 87 84 83 84 84 85
197 215 242 259 262 65 29 348 303 291 38 53 129 151 165 181 76 126 139 138 136 136 138 141 141 140 136 137 136 126 116 105 102 104 102 93 91 94 91 90 92 96 93 89
286 257 241 259 260 66 20 360 13 14 10 89 130 142 137 109 113 128 136 136 138 140 143 144 139 133 135 140 136 125 114 111 111 111 110 106 103 101 101 99 96 95 106 114
293 333 324 321 6 38 18 14 17 354 49 108 130 135 131 130 133 135 135 138 141 142 142 143 139 135 136 139 135 123 117 120 118 115 111 106 101 95 101 109 114 117 116 108
249 305 285 283 2 20 37 41 41 49 87 118 132 137 139 137 137 137 138 141 141 141 143 143 141 139 137 134 126 121 123 124 123 117 115 114 109 108 102 96 94 92 86 91
297 292 275 268 309 354 57 49 55 78 104 117 126 137 139 139 140 141 143 145 144 144 147 147 143 139 136 132 125 126 130 132 124 118 117 116 112 106 104 83 49 45 57 33
257 264 281 323 4 339 19 43 81 118 123 127 133 134 138 142 142 144 144 145 145 147 148 147 145 142 137 134 131 134 137 135 133 130 125 120 120 120 122 121 113 60 55 63